When you browse on this site, cookies collect data to enhance your experience and personalize the content and advertising you see.
Visit our Privacy Policy to learn more. By continuing to use the site, you agree to this use of cookies and data.
  • In Romania
  • List of Countries
  • For 7 days
  • Water Temperature
  • Satellite Maps
  • Weather Map
  • Weather Widgets
  • user-avatar
    Login

    Hourly Weather Zhitkovo

    Today, 18 June, Tuesday

    Time Temperature Precipitation Wind Pressure Humidity
    00:00 +17°C° 0 mm 2 mps 744 mmHg 86%
    01:00 +17°C° 0 mm 2 mps 744 mmHg 86%
    02:00 +17°C° 0 mm 2 mps 744 mmHg 85%
    03:00 +17°C° 0 mm 2 mps 744 mmHg 85%
    04:00 +18°C° 0 mm 2 mps 744 mmHg 85%
    05:00 +18°C° 0 mm 2 mps 744 mmHg 85%
    06:00 +19°C° 0 mm 3 mps 744 mmHg 76%
    07:00 +21°C° 0 mm 3 mps 745 mmHg 68%
    08:00 +22°C° 0 mm 3 mps 745 mmHg 59%
    09:00 +24°C° 0.1 mm 3 mps 745 mmHg 56%
    10:00 +25°C° 0.1 mm 3 mps 745 mmHg 54%
    11:00 +26°C° 0.1 mm 4 mps 745 mmHg 51%
    12:00 +26°C° 0.1 mm 4 mps 745 mmHg 49%
    13:00 +26°C° 0.1 mm 4 mps 745 mmHg 48%
    14:00 +27°C° 0.1 mm 4 mps 744 mmHg 46%
    15:00 +26°C° 0 mm 4 mps 745 mmHg 46%
    16:00 +25°C° 0 mm 4 mps 745 mmHg 45%
    17:00 +25°C° 0 mm 4 mps 745 mmHg 45%
    18:00 +22°C° 0 mm 3 mps 745 mmHg 53%
    19:00 +20°C° 0 mm 3 mps 745 mmHg 62%
    20:00 +18°C° 0 mm 2 mps 745 mmHg 70%
    21:00 +17°C° 0 mm 2 mps 745 mmHg 72%
    22:00 +17°C° 0 mm 2 mps 745 mmHg 74%
    23:00 +16°C° 0 mm 2 mps 746 mmHg 76%

    Tomorrow, 19 June, Wednesday

    Time Temperature Precipitation Wind Pressure Humidity
    00:00 +15°C° 0 mm 2 mps 746 mmHg 79%
    01:00 +15°C° 0 mm 2 mps 746 mmHg 82%
    02:00 +14°C° 0 mm 2 mps 746 mmHg 85%
    03:00 +15°C° 0 mm 2 mps 746 mmHg 82%
    04:00 +15°C° 0 mm 2 mps 747 mmHg 79%
    05:00 +16°C° 0 mm 2 mps 747 mmHg 77%
    06:00 +18°C° 0 mm 2 mps 747 mmHg 69%
    07:00 +20°C° 0 mm 2 mps 747 mmHg 62%
    08:00 +21°C° 0 mm 2 mps 747 mmHg 55%
    09:00 +24°C° 0 mm 2 mps 747 mmHg 50%
    10:00 +25°C° 0 mm 2 mps 747 mmHg 46%
    11:00 +26°C° 0 mm 2 mps 748 mmHg 42%
    12:00 +27°C° 0 mm 2 mps 747 mmHg 40%
    13:00 +27°C° 0 mm 2 mps 747 mmHg 39%
    14:00 +28°C° 0 mm 2 mps 747 mmHg 37%
    15:00 +28°C° 0 mm 2 mps 747 mmHg 40%
    16:00 +27°C° 0 mm 2 mps 747 mmHg 43%
    17:00 +27°C° 0 mm 2 mps 747 mmHg 46%
    18:00 +25°C° 0 mm 2 mps 747 mmHg 53%
    19:00 +23°C° 0 mm 1 mps 747 mmHg 61%
    20:00 +20°C° 0 mm 1 mps 747 mmHg 68%
    21:00 +19°C° 0 mm 1 mps 747 mmHg 69%
    22:00 +18°C° 0 mm 1 mps 747 mmHg 70%
    23:00 +16°C° 0 mm 1 mps 747 mmHg 71%

    Day after tomorrow, 20 June, Thursday

    Time Temperature Precipitation Wind Pressure Humidity
    00:00 +15°C° 0 mm 1 mps 747 mmHg 71%
    01:00 +15°C° 0 mm 1 mps 747 mmHg 72%
    02:00 +13°C° 0 mm 0 mps 747 mmHg 73%
    03:00 +15°C° 0 mm 1 mps 747 mmHg 72%
    04:00 +16°C° 0 mm 1 mps 748 mmHg 72%
    05:00 +18°C° 0 mm 1 mps 748 mmHg 71%
    06:00 +20°C° 0 mm 1 mps 748 mmHg 65%
    07:00 +22°C° 0 mm 1 mps 748 mmHg 58%
    08:00 +24°C° 0 mm 1 mps 748 mmHg 51%
    09:00 +26°C° 0 mm 1 mps 748 mmHg 46%
    10:00 +27°C° 0 mm 1 mps 748 mmHg 42%
    11:00 +28°C° 0 mm 1 mps 748 mmHg 37%
    12:00 +29°C° 0 mm 2 mps 747 mmHg 36%
    13:00 +29°C° 0 mm 2 mps 747 mmHg 35%
    14:00 +29°C° 0 mm 2 mps 747 mmHg 34%
    15:00 +29°C° 0 mm 2 mps 747 mmHg 40%
    16:00 +28°C° 0 mm 2 mps 746 mmHg 47%
    17:00 +28°C° 0 mm 1 mps 746 mmHg 53%
    18:00 +26°C° 0 mm 2 mps 746 mmHg 59%
    19:00 +24°C° 0 mm 2 mps 746 mmHg 66%
    20:00 +21°C° 0 mm 2 mps 746 mmHg 72%
    21:00 +20°C° 0 mm 2 mps 746 mmHg 73%
    22:00 +19°C° 0 mm 2 mps 746 mmHg 73%
    23:00 +18°C° 0 mm 2 mps 747 mmHg 73%

    21 June, Friday

    Time Temperature Precipitation Wind Pressure Humidity
    00:00 +18°C° 0 mm 2 mps 747 mmHg 75%
    01:00 +18°C° 0 mm 2 mps 747 mmHg 77%
    02:00 +18°C° 0 mm 1 mps 747 mmHg 79%
    03:00 +19°C° 0 mm 1 mps 747 mmHg 79%
    04:00 +19°C° 0 mm 1 mps 747 mmHg 79%
    05:00 +20°C° 0 mm 1 mps 747 mmHg 80%
    06:00 +20°C° 0 mm 2 mps 747 mmHg 75%
    07:00 +23°C° 0 mm 2 mps 747 mmHg 70%
    08:00 +25°C° 0 mm 2 mps 747 mmHg 65%
    09:00 +26°C° 0 mm 3 mps 747 mmHg 60%
    10:00 +27°C° 0 mm 3 mps 747 mmHg 54%
    11:00 +28°C° 0 mm 4 mps 747 mmHg 49%
    12:00 +28°C° 0 mm 4 mps 747 mmHg 50%
    13:00 +28°C° 0 mm 4 mps 747 mmHg 50%
    14:00 +28°C° 0 mm 4 mps 746 mmHg 51%
    15:00 +27°C° 0 mm 3 mps 746 mmHg 55%
    16:00 +27°C° 0 mm 3 mps 746 mmHg 58%
    17:00 +26°C° 0 mm 3 mps 746 mmHg 62%
    18:00 +25°C° 0 mm 3 mps 746 mmHg 69%
    19:00 +22°C° 0 mm 3 mps 746 mmHg 77%
    20:00 +21°C° 0 mm 3 mps 746 mmHg 84%
    21:00 +20°C° 0 mm 2 mps 746 mmHg 87%
    22:00 +19°C° 0 mm 2 mps 746 mmHg 90%
    23:00 +19°C° 0 mm 2 mps 746 mmHg 93%

    22 June, Saturday

    Time Temperature Precipitation Wind Pressure Humidity
    00:00 +19°C° 0 mm 2 mps 745 mmHg 95%
    01:00 +18°C° 0 mm 2 mps 745 mmHg 96%
    02:00 +18°C° 0 mm 2 mps 745 mmHg 97%
    03:00 +19°C° 0.6 mm 2 mps 745 mmHg 97%
    04:00 +19°C° 0.6 mm 2 mps 745 mmHg 98%
    05:00 +19°C° 0.6 mm 2 mps 745 mmHg 98%
    06:00 +20°C° 0.4 mm 2 mps 745 mmHg 97%
    07:00 +20°C° 0.4 mm 2 mps 745 mmHg 96%
    08:00 +20°C° 0.4 mm 3 mps 745 mmHg 96%
    09:00 +22°C° 0 mm 3 mps 745 mmHg 88%
    10:00 +25°C° 0 mm 3 mps 744 mmHg 80%
    11:00 +27°C° 0 mm 3 mps 744 mmHg 73%
    12:00 +27°C° 1.1 mm 3 mps 744 mmHg 75%
    13:00 +27°C° 1.1 mm 4 mps 744 mmHg 77%
    14:00 +27°C° 1.1 mm 4 mps 743 mmHg 79%
    15:00 +26°C° 1.2 mm 3 mps 743 mmHg 82%
    16:00 +26°C° 1.2 mm 3 mps 743 mmHg 85%
    17:00 +25°C° 1.2 mm 2 mps 743 mmHg 88%
    18:00 +24°C° 0.1 mm 2 mps 743 mmHg 89%
    19:00 +24°C° 0.1 mm 2 mps 743 mmHg 91%
    20:00 +23°C° 0.1 mm 2 mps 744 mmHg 93%
    21:00 +21°C° 0.2 mm 2 mps 744 mmHg 94%
    22:00 +20°C° 0.2 mm 2 mps 744 mmHg 95%
    23:00 +20°C° 0.2 mm 2 mps 745 mmHg 97%

    23 June, Sunday

    Time Temperature Precipitation Wind Pressure Humidity
    00:00 +19°C° 0 mm 2 mps 745 mmHg 97%
    01:00 +19°C° 0 mm 2 mps 745 mmHg 97%
    02:00 +18°C° 0 mm 3 mps 746 mmHg 97%
    03:00 +17°C° 0 mm 3 mps 746 mmHg 96%
    04:00 +17°C° 0 mm 3 mps 747 mmHg 95%
    05:00 +16°C° 0 mm 2 mps 747 mmHg 94%
    06:00 +17°C° 0 mm 2 mps 747 mmHg 88%
    07:00 +18°C° 0 mm 2 mps 748 mmHg 81%
    08:00 +19°C° 0 mm 2 mps 748 mmHg 74%
    09:00 +20°C° 0 mm 2 mps 748 mmHg 66%
    10:00 +23°C° 0 mm 2 mps 748 mmHg 59%
    11:00 +25°C° 0 mm 2 mps 748 mmHg 52%
    12:00 +25°C° 0 mm 2 mps 748 mmHg 50%
    13:00 +26°C° 0 mm 2 mps 748 mmHg 48%
    14:00 +27°C° 0 mm 2 mps 748 mmHg 46%
    15:00 +26°C° 0 mm 2 mps 748 mmHg 48%
    16:00 +26°C° 0 mm 2 mps 748 mmHg 50%
    17:00 +25°C° 0 mm 3 mps 748 mmHg 52%
    18:00 +23°C° 0 mm 2 mps 748 mmHg 57%
    19:00 +21°C° 0 mm 2 mps 748 mmHg 62%
    20:00 +19°C° 0 mm 2 mps 748 mmHg 68%
    21:00 +18°C° 0.2 mm 2 mps 748 mmHg 68%
    22:00 +17°C° 0.2 mm 3 mps 748 mmHg 69%
    23:00 +17°C° 0.2 mm 3 mps 748 mmHg 70%
    Show more